Weather History for Hermosillo, Mexico

Change the Weather History Date:

Sunday, October 23, 2011

  Actual Average Record
Temperature  
Mean Temperature 86 °F -  
Max Temperature 100 °F 84 °F 101 °F (2014)
Min Temperature 71 °F 55 °F 48 °F (1996)
Cooling Degree Days 20    
Growing Degree Days 36 (Base 50)    
Moisture  
Dew Point 63 °F    
Average Humidity 51    
Maximum Humidity 83    
Minimum Humidity 25    
Precipitation  
Precipitation 0.00 in - - ()
Sea Level Pressure  
Sea Level Pressure 29.91 in    
Wind  
Wind Speed 2 mph ()    
Max Wind Speed 12 mph    
Max Gust Speed -    
Visibility 10.0 miles    
Events      
Averages and records for this station are not official NWS values.
T = Trace of Precipitation, MM = Missing Value Source: Averaged Metar Reports

Daily Weather History Graph

Daily Weather History Graph

Search for Another Location

Airport:

Trip Planner

Search our weather history database for the weather conditions in past years. The results will help you decide how hot, cold, wet, or windy it might be!

Date:

Astronomy

Oct. 23, 2011 Rise Set
Actual Time 7:30 AM MDT 6:46 PM MDT
Civil Twilight 7:06 AM MDT 7:10 PM MDT
Nautical Twilight 6:38 AM MDT 7:38 PM MDT
Astronomical Twilight 6:10 AM MDT 8:05 PM MDT
Moon 3:57 AM MDT (10/23) 4:26 PM MDT (10/23)
Length of Visible Light 12h 04m
Length of Day
11h 15m
Waning Crescent, 14% of the Moon is Illuminated
Oct 23
Waning Crescent
Oct 26
New
Nov 2
First Quarter
Nov 10
Full
Nov 18
Last Quarter

Hourly Weather History & Observations

Time (MDT) Temp. Heat Index Dew Point Humidity Pressure Visibility Wind Dir Wind Speed Gust Speed Precip Events Conditions
12:46 AM 78.8 °F - 68.0 °F 69% 29.95 in 10.0 mi Calm Calm - N/A   Clear
1:45 AM 78.8 °F - 68.0 °F 69% 29.95 in 10.0 mi Calm Calm - N/A   Clear
2:44 AM 78.8 °F - 68.0 °F 69% 29.91 in 10.0 mi Calm Calm - N/A   Clear
3:45 AM 77.0 °F - 68.0 °F 74% 29.94 in 10.0 mi Calm Calm - N/A   Clear
4:45 AM 75.2 °F - 66.2 °F 73% 29.94 in 10.0 mi Calm Calm - N/A   Clear
5:43 AM 73.4 °F - 66.2 °F 78% 29.90 in 10.0 mi Calm Calm - N/A   Clear
6:50 AM 73.4 °F - 66.2 °F 78% 29.94 in 10.0 mi Calm Calm - N/A   Clear
7:45 AM 71.6 °F - 66.2 °F 83% 29.94 in 10.0 mi Calm Calm - N/A   Clear
8:46 AM 80.6 °F 84.6 °F 71.6 °F 74% 29.92 in 10.0 mi SSE 4.6 mph - N/A   Clear
9:46 AM 82.4 °F 85.4 °F 68.0 °F 62% 29.96 in 10.0 mi Calm Calm - N/A   Clear
10:45 AM 86.0 °F 88.2 °F 66.2 °F 51% 29.96 in 10.0 mi SE 4.6 mph - N/A   Clear
11:46 AM 87.8 °F 89.4 °F 64.4 °F 46% 29.91 in 10.0 mi Calm Calm - N/A   Clear
12:42 PM 91.4 °F 92.1 °F 62.6 °F 38% 29.93 in 10.0 mi SE 5.8 mph - N/A   Clear
1:46 PM 96.8 °F 97.1 °F 60.8 °F 30% 29.89 in 10.0 mi SE 5.8 mph - N/A   Clear
2:45 PM 98.6 °F 97.6 °F 57.2 °F 25% 29.81 in 10.0 mi SE 8.1 mph - N/A   Clear
3:41 PM 100.4 °F 100.2 °F 59.0 °F 25% 29.84 in 10.0 mi SE 11.5 mph - N/A   Clear
4:43 PM 98.6 °F 99.4 °F 60.8 °F 29% 29.83 in 10.0 mi SE 11.5 mph - N/A   Clear
5:48 PM 96.8 °F 96.2 °F 59.0 °F 28% 29.85 in 10.0 mi SSW 9.2 mph - N/A   Clear
6:45 PM 93.2 °F 91.9 °F 57.2 °F 30% 29.85 in 10.0 mi Calm Calm - N/A   Partly Cloudy
7:47 PM 89.6 °F 87.7 °F 55.4 °F 31% 29.89 in 10.0 mi South 9.2 mph - N/A   Partly Cloudy
8:40 PM 87.8 °F 87.1 °F 59.0 °F 38% 29.93 in 10.0 mi SE 5.8 mph - N/A   Scattered Clouds
9:45 PM 86.0 °F 86.1 °F 60.8 °F 43% 29.93 in 10.0 mi Calm Calm - N/A   Scattered Clouds
10:40 PM 84.2 °F 83.8 °F 59.0 °F 42% 29.93 in 10.0 mi Calm Calm - N/A   Scattered Clouds
11:43 PM 82.4 °F 82.9 °F 60.8 °F 48% 29.91 in 10.0 mi Calm Calm - N/A   Scattered Clouds